TimeEST,TemperatureF,Dew PointF,Humidity,Sea Level PressureIn,VisibilityMPH,Wind Direction,Wind SpeedMPH,Gust SpeedMPH,PrecipitationIn,Events,Conditions,WindDirDegrees,DateUTC
12:15 AM,5.4,-1.3,74,30.26,10.0,SSE,5.8,-,N/A,,Clear,160,2014-01-04 05:15:00
12:35 AM,5.0,-1.3,75,30.25,10.0,SE,3.5,-,N/A,,Clear,140,2014-01-04 05:35:00
12:55 AM,5.7,-0.4,76,30.24,10.0,SSE,4.6,-,N/A,,Clear,150,2014-01-04 05:55:00
1:15 AM,5.4,-0.6,76,30.24,10.0,SSE,3.5,-,N/A,,Clear,160,2014-01-04 06:15:00
1:35 AM,5.5,-0.2,77,30.23,10.0,SSE,5.8,-,N/A,,Clear,160,2014-01-04 06:35:00
1:55 AM,5.5,0.1,78,30.23,10.0,South,4.6,-,N/A,,Clear,170,2014-01-04 06:55:00
2:15 AM,5.7,0.5,79,30.23,10.0,SSE,5.8,-,N/A,,Clear,160,2014-01-04 07:15:00
2:35 AM,5.9,0.7,79,30.23,10.0,SSE,6.9,-,N/A,,Clear,160,2014-01-04 07:35:00
2:55 AM,6.6,1.4,79,30.22,10.0,SSE,5.8,-,N/A,,Clear,150,2014-01-04 07:55:00
3:15 AM,7.3,2.1,79,30.23,10.0,South,4.6,-,N/A,,Clear,170,2014-01-04 08:15:00
3:35 AM,6.4,1.8,81,30.22,10.0,South,4.6,-,N/A,,Clear,170,2014-01-04 08:35:00
3:55 AM,6.6,2.1,82,30.21,10.0,SSE,4.6,-,N/A,,Clear,150,2014-01-04 08:55:00
4:15 AM,6.3,1.8,82,30.21,10.0,SSE,6.9,-,N/A,,Clear,160,2014-01-04 09:15:00
4:35 AM,7.3,2.5,81,30.21,10.0,South,8.1,-,N/A,,Clear,170,2014-01-04 09:35:00
4:55 AM,8.6,3.2,79,30.21,10.0,SSE,8.1,-,N/A,,Clear,160,2014-01-04 09:55:00
5:15 AM,8.6,3.4,79,30.20,10.0,SSE,8.1,-,N/A,,Clear,160,2014-01-04 10:15:00
5:35 AM,9.3,4.1,79,30.19,10.0,SSE,10.4,-,N/A,,Clear,160,2014-01-04 10:35:00
5:55 AM,9.3,4.1,79,30.19,10.0,SSE,11.5,-,N/A,,Clear,160,2014-01-04 10:55:00
6:15 AM,9.5,4.1,79,30.19,10.0,SSE,8.1,-,N/A,,Clear,160,2014-01-04 11:15:00
7:30 AM,8.6,3.2,79,30.18,10.0,SSE,9.2,-,N/A,,Clear,160,2014-01-04 12:30:00
7:50 AM,10.4,5.0,79,30.17,10.0,SSE,13.8,-,N/A,,Clear,160,2014-01-04 12:50:00
8:50 AM,12.2,6.8,79,30.17,10.0,South,11.5,-,N/A,,Clear,170,2014-01-04 13:50:00
9:50 AM,17.6,8.6,68,30.17,10.0,South,12.7,-,N/A,,Clear,170,2014-01-04 14:50:00
10:55 AM,21.2,10.4,63,30.16,10.0,South,11.5,18.4,N/A,,Clear,170,2014-01-04 15:55:00
11:55 AM,28.4,14.0,55,30.11,10.0,South,15.0,20.7,N/A,,Clear,190,2014-01-04 16:55:00
12:50 PM,30.2,15.8,55,30.09,10.0,South,18.4,-,N/A,,Clear,190,2014-01-04 17:50:00
1:55 PM,-9999,-9999,N/A,30.08,10.0,SSW,13.8,-,N/A,,Clear,200,2014-01-04 18:55:00
2:55 PM,32.0,17.6,55,30.07,10.0,SSW,15.0,23.0,N/A,,Clear,200,2014-01-04 19:55:00
3:50 PM,33.8,17.6,52,30.07,10.0,South,9.2,-,N/A,,Clear,180,2014-01-04 20:50:00
4:50 PM,33.8,17.6,52,30.07,10.0,South,8.1,-,N/A,,Clear,170,2014-01-04 21:50:00
5:47 PM,30.2,17.6,60,30.06,10.0,North,-9999.0,-,N/A,,Clear,0,2014-01-04 22:47:00
6:35 PM,30.6,16.7,56,30.05,10.0,South,8.1,-,N/A,,Clear,180,2014-01-04 23:35:00
6:47 PM,30.2,17.6,60,30.05,10.0,South,10.4,-,N/A,,Clear,190,2014-01-04 23:47:00
6:55 PM,31.8,16.7,54,30.05,10.0,South,10.4,-,N/A,,Clear,190,2014-01-04 23:55:00
7:15 PM,32.0,16.7,53,30.05,10.0,South,9.2,-,N/A,,Clear,180,2014-01-05 00:15:00
7:35 PM,30.6,16.3,56,30.06,10.0,South,8.1,-,N/A,,Clear,180,2014-01-05 00:35:00
7:55 PM,28.8,15.8,58,30.06,10.0,South,5.8,-,N/A,,Clear,180,2014-01-05 00:55:00
8:15 PM,28.0,14.9,58,30.06,10.0,South,4.6,-,N/A,,Clear,170,2014-01-05 01:15:00
8:35 PM,28.2,14.9,57,30.06,10.0,South,6.9,-,N/A,,Clear,180,2014-01-05 01:35:00
8:55 PM,27.5,14.7,59,30.06,10.0,South,5.8,-,N/A,,Clear,170,2014-01-05 01:55:00
9:15 PM,26.6,14.2,60,30.06,10.0,South,5.8,-,N/A,,Scattered Clouds,170,2014-01-05 02:15:00
9:35 PM,25.5,14.4,63,30.06,10.0,SSE,3.5,-,N/A,,Mostly Cloudy,160,2014-01-05 02:35:00
9:55 PM,26.8,14.4,60,30.06,10.0,Calm,Calm,-,N/A,,Mostly Cloudy,0,2014-01-05 02:55:00
10:15 PM,26.2,14.5,61,30.06,10.0,South,3.5,-,N/A,,Scattered Clouds,170,2014-01-05 03:15:00
10:35 PM,25.3,14.0,62,30.06,10.0,SSE,3.5,-,N/A,,Mostly Cloudy,160,2014-01-05 03:35:00
10:55 PM,26.8,14.0,59,30.06,10.0,SSE,4.6,-,N/A,,Mostly Cloudy,160,2014-01-05 03:55:00
11:15 PM,24.8,13.5,62,30.06,10.0,South,3.5,-,N/A,,Mostly Cloudy,180,2014-01-05 04:15:00
11:35 PM,24.8,13.5,62,30.06,10.0,Calm,Calm,-,N/A,,Overcast,0,2014-01-05 04:35:00
11:55 PM,25.5,16.9,70,30.06,10.0,WSW,5.8,-,N/A,,Overcast,240,2014-01-05 04:55:00